DECAYED

COSMOS 2251 DEB, 34907 (Decayed)

Orbit data source: Space-Track

COSMOS 2251 DEB, 34907 was space debris in LEO originally from a launch on Wed, 16 Jun 1993 UTC launched from the Plesetsk Missile And Space Complex (PKMTR). The debris from Iridium 33, an American commercial communications satellite, has been tracked extensively since its accidental collision with the defunct Russian satellite Cosmos 2251 in 2009. This event, occurring at high speed in low Earth orbit (LEO), generated thousands of pieces of space debris, significantly increasing the risk of further collisions. The Iridium 33 debris cloud has impacted space traffic management and orbital debris mitigation strategies, making it a subject of ongoing study in space situational awareness.

Not visible in the next 10 days
Identifier
34907, 1993-036ADC
Orbit
Decayed
Country
Flag of CISCIS
Related business
Manufacturer
Unknown
Mission
Decayed spacecraft
Bus & Motor
Unknown
Mass
Unknown
Launch date (UTC)
1993-06-16 (33 years ago)
Launch vehicle
Unknown
Launch site
Plesetsk Missile And Space Complex (PKMTR)
Object type
Payload
Rocket body
Debris
Shape & HBR
Unknown shape, 0.1 m
Radar Cross Section
Small (<0.1 m²)

Expand to show TLE details & history
Last TLE update: 1 month ago

TLE from 1 month ago
0 COSMOS 2251 DEB
1 34907U 93036ADC 26005.00762490  .03481461  00000-0  13025-1 0  9994
2 34907  73.9537 356.6519 0006234 178.9909 181.1335 15.84092089883357
Epoch: 2026-01-05T00:10Z
TLE epoch observation values (Epoch: 2026-01-05T00:10:58.791Z)
Latitude
-0.00003°
Longitude
-110.70403°
Altitude
325.84 km
Speed
7.711 km/s
True Right ascension
23h 46m 36s
True Declination
0° 00' 00"
Sunlit
Object was in daylight at epoch
Visualization orbit readout
Latitude
Unknown
Longitude
Unknown
Altitude
Unknown
Speed
Unknown
Apparent Right ascension
Unknown
Apparent Declination
Unknown
Sunlit
N/A
Visualization observer readout
Local Sidereal Time
12:41:16
Azimuth
Unknown
Elevation
Unknown
Doppler factor
Unknown
Orbital elements
Apogee altitude
320.526 km
Perigee altitude
312.179 km
Semi-major axis
6,694.49 km
Eccentricity
0.00062
Inclination
73.9537°
RAAN
356.6519°
Arg. of periapsis
178.9909°
True anomaly
181.13209°
Mean anomaly
181.1335°
Eccentric anomaly
181.13279°
Mean motion
3.96248 °/min
Orbital period
90.85 mins
BSTAR
0.013025

Documentation

Showing up to 5 results
|